Location: Brusselsch Zeekanaal
(50.8667°N, 4.3667°E)
Time: 02:13:08
(UTC+00:00)

USA 59 Rocket - Pass Details

Date: 08 November 2025
Orbit: 370 x 1678 km, 63.3° (Epoch: 13 December)

Event Time Altitude Azimuth Distance (km) Brightness Sun altitude
Exits shadow 04:48:20 74° 249° (WSW) 421 -1.0 -18.8°
Maximum altitude 04:48:33 83° 312° (NW) 407 -1.0 -18.7°
Drops below altitude 10° 04:51:30 10° 43° (NE) 1,388 2.4 -18.3°
Sets 04:53:26 0° 44° (NE) 2,235 3.5 -18.0°
